Wind_Speed
29 29 27 24 23 23 23 23 24 24 23 22 20 20 20 19 18 19 20 20 21 19 17 17 18 19 19 19 19 19 19 21 21 22 22 23 23 17 12 10 6 7 16 14 11 10 5 2 4 6 9 11 11 11 13 14 13 12 12 14 13 12 12
31 29 27 25 23 25 24 23 24 24 23 21 20 20 19 18 19 19 19 20 20 19 18 17 18 19 19 20 20 19 19 20 19 20 21 23 23 18 14 9 6 14 15 9 12 13 6 4 3 3 7 10 10 12 15 14 12 12 13 14 14 12 11
29 27 25 25 25 26 25 24 24 24 23 21 20 20 19 19 19 18 19 20 19 19 18 17 18 19 18 19 20 19 19 19 19 20 21 22 23 20 16 13 14 19 13 6 12 14 8 6 3 4 9 9 9 12 15 15 13 13 14 15 14 13 11
28 27 25 25 26 26 25 25 25 23 23 22 20 20 20 19 19 19 19 19 18 17 18 19 19 19 18 18 19 18 19 18 18 19 20 21 22 20 18 17 18 21 17 12 16 18 13 8 5 5 9 11 10 12 15 15 14 13 14 16 14 13 11
28 28 28 27 27 27 26 25 24 21 21 21 20 20 21 20 20 20 20 19 17 17 19 20 19 19 18 18 18 19 19 19 18 18 19 20 20 20 20 19 18 21 20 17 20 22 19 16 12 8 10 12 8 9 15 15 14 15 16 17 15 13 11
29 28 29 29 29 29 28 26 24 22 21 22 20 20 21 21 21 20 20 19 18 17 18 19 19 18 17 18 19 20 19 19 18 18 19 20 19 18 19 20 18 19 19 17 19 22 19 18 17 12 11 12 7 9 14 13 13 16 18 19 16 13 13
27 25 26 28 29 29 29 27 26 24 24 24 23 23 23 22 20 19 18 18 18 17 17 18 18 18 17 17 18 19 19 18 17 17 18 18 18 17 18 19 19 17 18 16 17 20 20 19 20 17 13 9 6 9 11 11 14 15 16 19 19 16 15
24 23 23 25 28 30 29 28 26 24 25 26 25 24 24 21 19 19 18 18 18 17 17 19 19 19 17 17 17 18 18 17 16 16 17 17 18 18 17 18 19 17 17 16 16 20 21 19 21 24 20 10 5 6 7 9 13 15 17 20 21 20 18
25 26 25 25 27 30 29 28 26 25 25 26 25 25 23 21 20 21 20 20 20 17 17 19 20 19 17 16 17 19 18 17 16 16 16 16 17 17 16 16 18 18 17 15 16 19 21 20 21 26 26 19 10 5 4 6 7 9 17 21 20 21 20
25 28 27 26 28 29 29 28 27 26 26 26 26 24 22 21 22 22 21 21 21 18 18 19 18 18 17 16 18 19 18 17 16 16 16 16 15 15 15 16 18 17 16 15 16 18 18 20 23 26 28 27 20 10 4 5 5 7 16 21 19 21 22
23 26 27 28 28 28 29 29 29 28 28 27 25 24 23 22 23 22 21 21 20 19 18 18 18 18 17 16 17 18 17 17 17 16 17 16 15 15 14 16 17 16 16 16 17 17 16 19 24 26 27 27 23 17 12 7 5 10 18 21 18 20 22
23 25 26 28 29 29 31 32 32 31 30 27 25 24 24 24 24 23 21 21 21 20 18 17 17 18 17 17 17 17 16 16 17 18 17 16 16 16 14 15 16 15 16 17 16 16 15 17 23 26 26 26 23 20 19 14 6 10 20 24 21 20 21
25 25 26 29 30 30 30 32 33 33 31 28 27 26 25 25 25 23 23 22 21 19 18 17 17 17 17 17 17 17 17 17 17 18 18 16 16 17 16 15 15 15 16 16 16 18 17 17 22 25 24 25 24 21 20 17 10 9 19 25 24 22 21
28 28 31 32 25 19 21 27 31 34 32 30 28 27 26 25 24 23 24 22 20 18 17 17 17 16 16 16 17 17 18 18 18 17 17 16 15 17 16 16 16 16 16 15 15 17 19 18 21 24 21 20 23 22 21 21 14 11 15 20 22 22 21
29 30 32 30 20 15 20 25 29 34 33 31 29 27 27 25 23 24 24 21 20 18 16 17 18 16 15 15 17 18 19 19 17 16 16 16 15 15 16 16 16 16 16 16 15 16 19 19 19 22 20 17 19 20 22 24 21 15 16 18 20 22 21
28 30 31 26 21 21 23 24 29 34 33 31 30 28 26 25 24 23 22 21 21 18 16 18 18 16 15 15 15 17 18 18 18 17 17 16 14 14 15 15 16 17 16 16 15 16 18 19 18 18 19 18 19 17 17 23 24 21 19 18 20 22 23
27 29 26 20 20 22 21 21 27 32 33 31 30 28 25 24 24 23 23 23 21 18 17 19 19 17 15 15 15 16 17 17 17 17 16 15 14 14 14 14 15 17 17 16 15 16 17 18 18 18 18 17 18 16 14 19 25 24 22 20 21 24 24
25 26 21 15 19 23 22 22 24 29 32 31 28 27 25 23 23 23 24 24 22 19 18 19 19 18 15 15 16 16 16 16 16 15 15 15 14 13 13 13 13 16 18 16 15 16 16 17 17 17 17 16 18 18 15 16 23 24 23 24 24 23 23
23 23 18 14 20 24 25 26 25 26 30 29 27 26 25 24 24 24 24 23 22 21 19 18 18 17 15 15 16 15 14 16 15 15 15 15 14 13 12 12 13 15 17 17 16 16 15 15 15 16 15 14 15 17 13 14 21 23 23 25 25 23 24
23 23 17 15 22 25 27 29 27 25 26 27 27 26 25 24 24 24 24 23 23 22 19 17 17 18 16 14 14 13 13 15 15 15 15 15 14 13 11 11 12 14 17 17 16 16 15 14 15 15 14 11 13 16 14 13 18 22 23 24 24 24 25
21 23 19 19 25 28 28 29 28 26 26 26 26 26 25 24 24 24 25 25 23 22 19 16 17 18 15 14 13 13 13 15 16 16 16 15 15 13 10 9 10 12 14 16 15 15 14 14 14 16 15 11 12 18 18 15 16 21 23 24 24 24 24
19 21 23 24 27 28 25 27 29 27 27 27 26 26 24 22 23 25 26 25 22 20 18 17 18 17 15 14 15 14 14 15 16 17 18 17 15 12 9 6 7 9 11 12 13 12 11 12 12 14 15 12 13 17 17 15 17 22 24 23 23 22 20
19 20 25 27 28 26 24 28 29 26 28 29 27 26 24 22 25 27 26 24 22 19 18 18 18 17 15 15 15 14 14 14 15 17 18 17 15 12 9 7 7 8 9 9 11 9 7 8 8 8 9 9 11 14 13 13 17 22 23 22 21 20 19
19 19 25 29 28 27 26 29 29 24 27 31 28 27 27 26 27 27 25 23 22 20 19 18 18 17 16 16 14 13 13 12 13 16 16 16 16 14 12 10 9 9 10 10 10 9 9 8 8 7 6 5 4 4 8 12 17 19 20 19 18 18 19
21 19 25 29 28 26 26 28 28 26 30 32 29 29 29 29 28 26 25 24 22 21 20 18 18 17 17 17 15 13 12 11 12 14 16 16 17 16 14 13 11 10 10 11 10 9 10 10 9 9 10 10 10 7 5 8 11 12 12 12 12 12 13
25 22 25 29 26 24 26 28 28 29 32 32 31 32 32 31 30 27 24 23 22 21 20 18 18 16 15 15 15 14 12 10 11 14 17 18 18 17 15 14 13 11 9 9 9 10 11 10 8 9 9 8 8 9 8 8 8 8 7 7 6 6 5
25 25 26 28 26 26 27 29 29 31 34 34 33 34 32 31 30 26 23 22 20 20 19 17 16 16 15 15 15 14 12 13 15 16 18 18 18 17 16 15 14 12 10 9 9 10 11 10 9 8 8 7 6 6 7 7 7 7 6 5 5 4 3
15 24 28 28 27 28 29 30 30 31 34 35 34 34 32 30 29 25 22 20 19 18 16 14 14 14 15 16 17 16 16 18 20 19 19 19 18 18 17 15 14 13 11 10 10 10 10 10 10 10 10 9 8 6 6 7 7 7 7 6 6 5 3
12 17 28 30 28 28 29 30 32 34 34 34 33 32 31 29 28 26 22 19 19 18 15 13 13 13 14 16 18 19 20 21 22 21 21 20 19 18 16 14 13 12 11 11 11 10 9 9 9 10 11 10 9 8 7 7 7 7 7 6 6 6 6
17 14 26 31 28 28 28 27 30 34 36 34 33 31 30 29 28 27 24 21 20 20 18 15 13 14 15 15 17 20 21 22 24 24 23 22 20 19 16 14 13 12 12 11 10 9 8 6 7 8 8 7 6 5 5 5 4 4 5 5 6 7 8
23 17 23 30 28 28 28 25 26 32 36 35 34 31 30 30 29 27 26 24 22 21 20 17 15 16 17 17 19 21 22 24 25 25 23 21 19 18 16 14 13 12 12 11 10 8 7 5 5 5 4 4 4 4 5 4 5 5 6 7 7 8 9
28 23 23 28 29 29 28 27 27 30 33 34 33 32 31 31 31 29 27 25 23 22 21 19 17 18 18 19 21 22 23 24 25 24 22 20 18 17 15 14 13 12 11 10 9 7 6 5 4 4 4 4 5 6 7 8 9 9 10 10 10 10 10
31 29 28 28 29 30 29 28 28 29 30 32 32 31 31 33 33 30 28 27 25 23 22 20 18 18 19 19 20 22 23 24 24 23 21 19 18 16 14 13 12 11 10 9 8 8 7 6 5 5 4 4 5 5 6 6 7 7 7 7 7 7 7
30 30 29 30 31 30 29 28 27 26 27 29 32 32 32 33 33 31 29 28 27 25 23 21 19 17 17 17 17 18 19 21 21 20 18 17 15 14 13 12 11 11 10 9 8 8 7 7 6 5 5 5 6 5 5 5 4 4 5 6 6 6 7
30 28 28 28 29 27 26 25 26 25 25 26 30 32 32 33 33 31 28 27 26 25 22 20 19 18 16 15 14 14 15 16 14 12 12 13 12 11 11 11 11 11 11 11 10 10 9 9 9 9 9 9 8 7 7 7 7 7 7 7 7 8 10
30 29 27 26 26 24 22 21 21 22 22 23 26 30 32 33 32 30 28 26 25 24 22 20 18 17 16 15 14 14 14 13 10 8 9 11 11 10 11 12 13 13 13 13 13 13 14 13 13 13 13 12 11 9 8 7 8 8 8 9 9 10 12
25 26 25 24 24 24 22 20 19 17 16 17 19 23 28 30 30 28 26 23 22 21 20 18 16 15 14 13 13 14 14 13 11 10 11 13 13 13 14 14 14 14 14 15 17 17 17 16 15 14 13 12 12 11 10 9 9 10 11 11 11 12 13
Wind_Direction
202 205 201 200 202 205 211 210 206 204 204 208 207 205 204 198 189 184 183 188 193 193 191 190 190 191 192 189 188 191 191 192 192 188 186 185 189 196 200 205 240 198 172 168 171 157 135 156 159 173 191 187 185 181 176 180 185 188 187 184 182 174 166
207 207 198 193 196 203 212 210 204 202 201 205 208 206 203 197 192 187 186 194 197 194 193 194 195 193 192 191 189 191 192 193 199 199 193 189 191 193 186 185 176 164 162 167 170 157 135 152 151 158 180 182 188 184 179 183 188 189 188 186 185 183 175
205 206 197 189 192 199 208 207 202 201 201 202 204 203 199 195 197 193 189 196 197 195 197 196 195 194 193 194 192 194 195 194 198 202 201 197 197 197 191 180 162 159 158 151 165 163 148 154 166 165 171 176 186 185 184 186 189 190 189 189 189 188 185
201 201 194 190 192 196 203 205 201 202 203 201 199 200 197 194 197 196 192 194 193 196 199 194 190 192 194 196 196 198 198 195 196 200 204 203 201 201 198 190 178 175 178 176 175 172 162 159 156 154 175 184 186 186 184 186 192 193 190 193 195 192 191
203 200 194 193 193 195 199 201 199 202 205 203 199 196 194 191 193 195 195 194 191 193 195 193 193 193 195 199 200 201 198 194 197 199 199 201 200 200 200 198 193 191 193 192 186 181 178 174 163 154 176 182 184 189 182 182 194 197 194 196 197 194 190
209 206 200 198 196 196 197 197 197 199 202 205 202 193 189 190 192 193 196 194 190 190 190 192 196 194 194 199 199 199 195 193 198 201 200 201 201 200 201 201 201 202 202 200 193 190 187 177 163 156 172 177 173 180 181 183 193 196 197 198 199 198 195
209 210 206 203 200 198 198 196 196 198 199 200 197 190 185 187 188 187 188 185 183 186 189 192 195 192 192 195 195 194 192 193 199 203 205 206 205 203 203 204 207 208 205 202 198 195 191 180 168 159 160 168 166 172 181 181 180 184 191 197 202 202 200
205 209 214 211 204 201 199 196 196 197 197 195 191 186 183 183 183 181 181 181 182 186 191 191 190 190 190 192 193 193 192 193 198 201 204 207 206 205 206 207 209 208 205 206 206 203 199 194 183 170 161 154 150 171 184 178 175 183 188 193 203 207 204
204 207 215 214 207 204 200 196 195 195 195 192 187 184 182 181 182 181 182 185 185 183 184 184 184 186 188 190 192 192 193 194 196 198 202 203 203 204 207 209 206 204 207 210 208 204 204 203 195 181 171 166 163 165 186 185 177 185 189 190 197 207 208
206 207 212 212 208 206 202 197 195 194 191 187 185 184 183 182 182 181 181 183 183 180 180 183 184 185 188 191 191 192 195 196 196 199 201 201 202 204 206 206 204 203 207 206 198 198 203 205 199 188 181 178 172 162 161 195 192 180 188 191 194 201 205
209 208 210 210 209 207 202 196 193 191 187 184 185 185 184 183 183 182 179 180 182 180 180 183 185 187 189 189 190 191 194 196 198 202 202 202 204 204 204 205 204 205 208 203 194 196 202 205 201 195 190 186 181 174 169 174 195 191 190 195 199 202 201
216 212 211 209 209 208 203 195 190 188 185 184 185 185 185 185 184 182 179 178 180 181 182 183 184 189 191 189 191 193 192 196 201 204 205 206 208 207 204 204 204 203 206 204 198 200 204 205 204 200 195 193 190 188 180 169 175 203 199 200 205 208 205
221 218 215 212 212 211 204 194 186 182 181 182 182 181 183 184 183 183 180 176 177 179 180 179 180 185 187 187 191 194 193 196 202 205 205 207 210 208 204 205 206 202 202 204 201 203 205 204 203 200 197 197 199 201 195 181 175 195 203 205 207 209 206
221 222 218 216 218 217 207 196 186 180 178 178 179 177 178 180 180 179 176 172 172 175 177 179 181 182 182 183 187 191 192 195 199 202 203 204 206 208 208 209 210 206 206 206 203 206 207 205 202 199 200 201 201 206 208 200 189 181 193 205 209 208 204
223 224 221 218 220 218 211 204 191 181 177 177 177 176 175 177 177 174 172 172 172 174 175 177 180 181 181 184 187 191 194 195 198 201 203 204 205 207 210 211 211 210 211 212 210 211 210 206 202 203 206 202 198 207 215 208 196 181 184 199 207 206 201
225 225 223 218 215 213 214 211 197 182 175 175 176 175 175 176 177 175 175 175 174 172 170 170 175 178 180 183 184 188 194 196 198 200 202 204 202 203 207 210 212 212 211 214 216 215 213 210 209 211 213 204 200 212 220 211 201 188 182 191 202 203 199
226 224 221 215 206 208 213 211 196 179 170 171 171 171 171 172 174 175 175 173 170 169 170 171 176 181 184 187 185 186 189 191 195 200 199 199 197 199 205 208 212 213 213 216 216 214 214 215 215 215 214 207 204 215 221 211 206 196 184 186 198 204 201
225 222 219 209 196 200 201 196 188 174 167 168 168 169 169 169 171 172 171 171 168 169 171 171 176 183 187 186 185 187 190 191 196 201 198 194 194 198 204 209 211 212 215 216 213 212 213 215 218 216 212 205 201 209 217 209 205 202 194 193 197 200 202
223 223 221 203 192 193 189 181 178 172 167 166 167 170 172 173 173 171 170 171 170 170 171 172 178 183 181 177 181 187 190 192 197 201 199 196 196 200 207 214 218 216 217 216 210 210 211 211 214 214 213 208 196 203 217 210 203 204 203 201 197 196 199
219 219 214 196 189 187 180 175 173 172 170 167 165 168 173 176 177 175 174 172 171 171 172 173 177 180 177 176 180 180 177 181 186 189 192 190 190 197 203 210 218 221 222 221 215 212 212 209 211 214 218 214 199 207 226 222 206 205 204 200 197 196 199
210 208 201 189 182 178 175 174 171 170 173 172 168 168 173 178 179 175 171 169 169 170 172 173 176 176 175 178 181 176 171 174 174 171 170 171 176 185 191 200 212 219 223 222 217 215 214 212 213 215 218 216 203 213 232 235 215 207 204 198 196 199 200
208 200 190 181 175 175 177 173 168 171 178 176 170 168 171 175 173 168 164 163 164 164 165 169 170 169 168 168 165 160 159 163 162 158 158 163 170 173 172 182 203 210 213 213 210 210 213 216 216 213 216 220 214 216 230 234 217 208 203 197 196 198 199
212 197 184 178 172 173 178 171 167 176 182 174 166 165 165 163 161 160 157 156 156 156 158 161 163 164 164 163 158 151 150 151 153 153 156 161 165 162 158 165 182 188 188 191 195 194 193 200 204 203 208 215 219 226 236 230 210 200 197 196 195 195 196
210 191 179 178 172 170 175 171 169 174 170 162 160 161 159 155 154 155 154 152 150 149 149 151 155 158 159 160 163 159 151 146 149 157 162 162 162 161 161 162 162 161 161 164 168 158 141 142 150 153 153 145 157 225 236 218 201 195 196 197 199 200 204
201 185 172 172 170 173 176 170 165 162 154 153 153 152 151 150 150 151 151 150 147 142 142 143 145 150 153 155 159 159 153 141 138 154 167 167 164 162 158 156 156 154 157 160 159 147 135 131 126 119 114 109 102 105 140 173 177 182 189 192 195 203 215
187 180 169 167 166 169 169 162 159 154 148 148 148 144 143 145 144 145 145 145 142 139 140 140 139 142 147 153 160 162 156 142 134 151 167 167 161 158 154 154 155 150 149 155 154 147 142 138 131 120 114 110 104 105 115 123 129 140 149 157 168 176 196
172 167 164 164 159 156 156 153 151 148 145 145 143 140 139 140 139 140 142 140 138 136 138 140 141 141 137 141 156 163 154 144 142 151 160 157 152 152 152 151 147 137 131 132 133 137 138 134 131 129 132 135 124 113 113 109 108 113 114 118 133 144 164
142 147 149 153 150 145 146 145 143 141 140 140 139 137 137 137 137 137 137 138 136 131 131 138 143 144 137 132 139 144 141 140 142 146 149 148 146 147 147 144 137 131 125 116 111 118 126 128 125 118 117 125 128 121 111 96 84 77 73 72 74 75 74
76 119 132 137 137 135 136 138 138 137 135 132 132 132 132 132 132 131 131 134 132 122 119 128 141 147 146 140 135 131 131 134 135 136 136 137 137 137 136 133 128 125 122 113 106 108 114 122 125 115 107 107 105 101 96 81 64 53 46 42 35 26 16
42 80 114 121 122 124 126 128 130 133 133 128 126 126 125 124 124 125 124 124 123 116 108 112 128 141 147 148 141 133 131 130 127 125 123 124 126 126 122 120 119 119 116 108 102 104 107 112 115 107 99 95 90 82 77 66 49 29 14 3 355 349 345
36 53 93 107 111 115 118 117 118 123 126 124 122 122 120 117 115 115 114 112 113 111 104 101 112 126 137 146 144 137 134 129 124 122 119 117 117 117 113 110 108 108 106 98 93 95 97 95 95 85 66 50 34 13 359 342 324 317 315 315 316 317 321
39 43 70 91 101 106 109 110 111 114 117 117 116 115 115 112 107 104 103 103 103 104 101 99 103 111 121 133 140 139 136 130 123 119 117 114 111 109 107 104 99 94 90 85 81 79 78 71 62 50 30 16 11 5 354 337 325 318 312 309 311 313 316
48 44 54 71 86 96 102 105 108 109 111 112 112 110 108 105 100 97 97 97 95 94 93 93 96 103 109 118 127 132 133 130 124 118 114 110 105 101 98 93 87 81 77 74 68 62 59 53 47 40 25 19 23 21 11 356 344 339 336 339 344 341 339
55 49 53 63 74 84 93 99 102 102 104 108 109 105 102 100 97 94 93 93 90 87 85 84 85 92 101 108 117 123 124 123 123 120 114 106 99 94 89 84 80 76 72 70 69 68 68 67 67 66 59 55 58 59 56 52 48 46 46 47 44 30 15
60 55 55 61 67 74 82 90 95 97 99 105 107 104 101 99 97 93 91 90 88 84 81 77 73 74 82 94 106 116 116 114 116 119 114 105 96 87 81 81 82 82 80 82 85 86 85 84 81 75 69 67 67 70 78 85 84 78 75 69 57 39 25
62 61 60 60 63 66 71 78 87 95 100 102 104 104 102 100 98 95 91 88 86 82 77 73 70 70 72 81 92 102 107 108 111 118 113 103 97 93 92 94 95 94 94 94 92 89 86 84 82 78 74 73 72 74 80 85 82 79 78 72 57 40 28
61 64 65 64 64 63 64 69 79 92 104 106 103 102 102 101 100 96 92 86 83 81 78 74 75 75 75 79 87 93 99 103 106 110 107 103 105 108 105 102 100 100 100 97 93 90 87 84 81 78 76 75 74 74 75 77 79 78 71 61 46 34 28
Height
796 796 799 801 803 805 808 809 810 811 812 813 814 815 816 817 818 818 820 821 822 823 824 825 826 828 829 830 832 833 834 835 835 836 837 838 839 841 842 843 843 843 844 845 847 849 852 855 856 857 858 858 859 860 860 861 861 862 862 863 863 863 864
795 796 798 799 801 804 807 808 809 810 811 812 813 814 815 816 817 818 819 820 821 822 823 824 826 827 828 829 830 832 833 834 834 835 836 837 838 839 841 842 842 844 845 846 847 848 850 854 856 856 857 858 859 860 860 860 861 862 863 863 864 864 864
794 796 797 798 800 802 805 807 808 809 810 811 812 813 814 815 816 817 818 819 820 821 822 824 825 826 827 828 830 831 832 833 834 835 836 837 837 839 840 840 841 843 845 846 847 848 850 852 854 855 856 857 858 859 860 860 861 862 863 864 864 864 865
793 796 796 796 798 800 802 804 806 807 808 810 811 812 813 814 815 816 817 818 819 820 822 823 824 825 826 827 829 830 831 832 833 834 835 836 837 838 839 839 840 840 841 843 844 846 848 849 852 855 856 857 857 858 859 861 861 862 863 864 864 864 865
792 794 795 795 796 797 799 802 804 806 808 810 811 811 812 814 815 816 817 818 819 820 821 823 823 824 825 827 828 829 830 831 832 833 834 835 836 837 838 839 839 839 840 841 842 843 845 847 849 853 855 856 857 858 859 861 862 863 863 864 864 865 865
790 793 794 794 795 796 798 800 802 805 807 809 810 810 811 813 815 816 816 817 819 820 821 822 823 823 825 826 827 828 829 830 831 832 833 835 835 836 837 838 839 840 840 841 842 843 845 846 848 851 854 856 857 858 859 860 861 862 863 864 864 865 865
791 794 795 795 795 796 797 799 801 803 805 807 809 809 811 813 814 815 816 817 818 819 820 822 822 823 824 825 826 827 829 830 831 832 833 834 835 836 837 837 838 839 840 841 842 843 844 846 847 849 852 856 857 858 859 860 860 861 863 863 864 864 865
793 796 797 797 796 797 798 799 801 802 804 806 807 809 810 812 812 813 815 816 817 818 820 821 822 823 824 825 826 827 828 830 831 832 833 834 834 835 836 837 837 838 840 841 841 842 843 844 846 847 849 853 857 859 859 860 860 860 861 862 863 864 864
793 794 796 797 797 797 798 799 800 802 803 805 807 808 809 810 811 812 814 815 817 818 819 820 821 822 823 824 825 827 828 829 831 831 832 833 834 835 835 836 837 838 839 840 841 842 843 844 845 846 847 849 852 856 859 859 860 860 860 861 862 863 864
792 791 793 795 795 795 796 797 798 800 802 804 805 807 808 809 810 812 813 815 816 817 818 819 821 822 823 824 825 826 828 829 830 831 832 832 833 834 835 836 836 837 838 839 840 841 842 844 845 846 847 847 848 851 855 858 859 859 860 860 860 861 863
790 790 790 791 791 792 792 794 796 798 800 802 804 805 807 809 810 812 813 814 815 816 818 819 820 821 822 823 824 826 827 829 830 831 831 832 833 834 835 835 836 837 837 838 839 840 841 843 844 845 846 848 848 848 850 854 857 857 858 859 859 860 861
788 788 788 788 788 787 788 789 791 794 797 800 802 804 806 808 810 811 812 813 814 815 817 818 819 820 822 823 824 825 827 828 830 830 831 832 832 833 834 835 836 836 837 837 838 840 841 842 843 845 846 848 849 849 849 851 855 856 856 857 858 858 859
785 786 787 786 785 785 786 786 787 790 794 797 800 803 805 808 809 811 812 813 814 815 816 818 819 820 821 822 824 825 826 828 829 830 830 831 832 833 834 835 835 836 836 837 838 839 840 842 843 844 846 847 849 850 850 851 853 854 855 856 857 858 859
782 783 783 783 786 789 791 790 788 789 791 794 798 801 804 806 808 810 811 812 813 814 816 817 819 820 821 822 824 825 826 827 829 829 830 830 831 832 834 834 835 835 836 837 837 838 839 841 842 844 845 847 848 849 850 851 852 853 854 856 856 857 858
779 780 781 783 787 791 793 794 792 789 789 793 796 799 802 805 807 809 810 812 813 814 815 817 818 820 821 823 824 825 826 827 828 828 829 830 831 832 833 833 834 835 836 836 837 838 839 840 842 843 844 845 847 848 848 849 850 852 853 854 855 856 858
777 777 779 782 787 790 792 795 794 789 789 792 795 798 801 804 806 808 810 811 812 813 815 816 818 820 821 822 823 824 825 826 827 827 828 829 830 831 831 832 833 834 835 835 836 837 838 839 841 842 843 844 846 847 847 847 848 849 851 852 854 855 856
775 776 779 782 786 790 793 796 796 790 789 792 795 798 801 803 805 807 809 810 811 813 814 816 818 819 820 821 823 824 825 825 826 827 827 828 829 830 831 831 832 833 834 834 835 836 837 838 840 841 842 843 845 846 846 845 846 847 849 851 852 853 854
775 777 780 782 785 789 791 795 796 792 790 792 795 798 801 803 805 806 808 809 811 812 814 815 817 819 820 821 822 823 824 825 826 826 827 828 829 830 830 831 831 832 833 833 834 835 836 837 839 840 841 843 844 845 845 844 845 846 847 848 850 852 854
775 777 780 781 782 786 788 791 795 794 792 792 795 798 801 803 805 806 808 809 810 812 814 815 817 818 819 820 821 822 823 824 825 826 827 828 829 829 830 830 831 831 831 832 833 834 835 836 837 838 840 841 843 844 844 844 844 845 846 847 848 850 852
774 775 778 779 781 784 786 788 792 795 796 794 795 798 801 803 805 806 807 809 810 812 813 815 816 817 818 819 821 821 822 823 824 825 826 827 828 829 830 830 831 830 831 831 832 833 834 835 836 837 839 840 841 842 843 843 843 844 845 846 847 848 850
772 773 776 778 779 782 784 786 789 795 799 798 796 797 800 803 804 805 807 809 810 812 813 814 816 817 818 819 820 821 821 822 823 824 825 826 828 829 830 830 830 830 830 831 832 833 834 834 835 836 838 839 840 841 842 843 843 843 844 845 846 847 849
772 772 774 776 778 781 784 786 789 795 800 798 796 797 800 802 804 805 807 809 810 811 812 814 815 816 818 818 819 820 821 822 823 823 825 826 828 829 829 830 830 830 830 831 832 833 833 834 834 835 837 838 839 840 841 841 841 842 843 844 845 847 849
770 771 771 773 776 780 785 786 788 794 797 795 795 796 799 802 804 806 808 809 810 811 812 814 815 816 817 818 819 820 821 822 822 823 824 826 827 828 829 829 829 829 830 831 832 832 833 833 834 835 836 837 838 839 839 840 840 841 842 843 845 846 848
769 770 770 772 775 779 784 785 788 793 793 792 793 795 797 800 803 806 808 809 810 811 812 814 815 816 817 818 819 820 821 822 822 823 824 825 826 827 828 828 829 830 830 831 832 832 833 834 835 836 836 836 837 838 838 839 840 841 842 843 844 846 847
769 769 770 772 775 778 782 784 787 791 790 790 792 794 796 799 802 806 808 809 810 811 813 814 815 816 817 818 819 820 821 821 822 823 824 825 826 826 827 828 829 830 830 831 832 833 834 835 836 836 836 836 837 838 839 839 840 841 843 844 845 846 847
768 768 769 771 774 778 782 783 786 788 788 789 791 793 796 798 801 805 808 809 811 811 813 815 816 817 818 818 819 820 820 821 822 823 824 824 825 826 827 828 829 829 830 831 832 833 834 835 836 836 836 836 838 839 840 840 841 842 843 844 845 846 847
766 766 768 770 774 778 780 782 785 787 786 788 791 792 796 798 800 804 808 809 811 812 813 815 816 817 818 817 818 818 819 821 821 822 823 824 825 826 827 828 828 829 830 831 831 832 833 834 835 836 835 836 838 840 840 841 842 842 843 843 844 846 846
768 766 767 770 773 776 778 781 785 786 786 788 790 792 796 799 800 803 808 810 811 812 813 815 816 817 818 817 817 818 819 820 821 822 823 824 825 826 828 828 829 829 830 831 831 832 833 834 835 835 836 837 838 839 840 841 842 842 843 843 844 845 846
772 770 768 770 774 777 780 782 784 785 786 789 791 794 797 799 800 803 807 810 811 812 814 815 816 817 818 817 817 818 819 821 821 822 823 824 825 827 828 829 829 829 830 830 831 832 833 834 834 835 836 837 838 839 839 840 841 841 842 843 843 844 844
778 776 772 772 776 779 782 785 785 784 786 789 793 796 799 801 802 803 806 809 811 812 814 816 816 816 817 817 818 818 820 821 822 823 824 825 826 827 828 829 829 830 830 830 831 832 832 833 834 835 836 837 838 839 839 840 841 841 842 842 842 843 843
785 783 777 776 779 781 784 787 787 786 787 791 794 798 801 802 803 804 806 809 811 813 815 816 817 817 817 817 818 819 820 821 822 824 825 826 827 828 828 829 830 830 830 830 831 831 832 833 834 835 836 837 837 837 838 838 839 840 840 841 841 842 842
791 789 784 781 782 783 786 789 790 791 792 794 796 800 803 802 803 805 807 810 812 814 815 817 818 818 817 818 818 818 819 821 823 825 826 827 828 829 829 830 830 830 831 831 832 832 832 833 834 835 836 836 837 837 837 838 838 838 839 839 840 840 840
796 794 789 787 786 787 789 792 794 796 797 797 799 802 804 803 803 807 809 811 814 815 816 818 819 819 819 819 819 819 819 820 823 825 827 828 829 830 830 831 831 831 832 832 832 832 833 833 834 835 836 836 836 837 838 838 838 839 839 839 839 839 838
800 798 795 793 791 792 794 796 798 799 801 801 801 804 805 804 805 809 812 813 815 817 818 820 820 821 821 821 821 821 821 822 824 825 827 829 830 830 831 831 832 832 832 832 832 832 833 834 834 835 835 836 837 837 838 838 838 838 839 839 839 838 838
802 802 801 799 798 798 799 801 801 802 805 805 805 806 807 807 808 812 815 816 817 819 820 821 822 822 823 823 823 823 823 824 825 826 827 828 829 830 831 831 831 831 832 832 832 833 833 834 835 836 836 836 837 837 838 838 838 838 838 838 838 838 838
806 806 806 806 805 805 805 805 805 806 809 810 810 809 809 809 811 814 817 819 821 822 822 822 823 824 825 825 825 824 824 825 827 828 827 828 829 831 831 831 831 832 832 833 833 834 835 836 836 836 837 837 837 837 838 838 838 839 839 839 839 839 838
811 811 811 811 811 810 810 811 810 811 813 815 815 813 812 812 814 816 819 822 823 824 824 825 826 827 827 827 826 826 826 827 828 829 828 829 830 831 832 832 832 833 834 834 835 836 836 837 837 838 838 838 838 838 838 838 839 839 839 839 839 839 838